CST,Max TemperatureF,Mean TemperatureF,Min TemperatureF,Max Dew PointF,MeanDew PointF,Min DewpointF,Max Humidity, Mean Humidity, Min Humidity, Max Sea Level PressureIn, Mean Sea Level PressureIn, Min Sea Level PressureIn, Max VisibilityMiles, Mean VisibilityMiles, Min VisibilityMiles, Max Wind SpeedMPH, Mean Wind SpeedMPH, Max Gust SpeedMPH,PrecipitationIn, CloudCover, Events, WindDirDegrees
2013-1-1,50,46,42,48,44,36,94,89,71,30.10,30.03,29.97,10,7,2,16,2,26,1.42,5,,31
2013-1-2,42,40,37,39,35,34,93,84,76,30.21,30.14,30.05,10,9,6,12,7,,0.00,8,,338
2013-1-3,44,36,28,34,29,23,93,75,53,30.38,30.28,30.17,10,8,5,10,4,,0.00,3,,330
2013-1-4,48,36,24,27,23,19,93,67,32,30.45,30.39,30.35,10,10,7,10,2,,0.00,0,,349
2013-1-5,48,36,24,37,27,21,93,74,34,30.42,30.35,30.28,10,10,8,6,1,,0.08,3,,103
2013-1-6,48,40,32,39,36,28,93,83,62,30.31,30.25,30.20,10,8,3,9,1,16,0.02,5,,294
2013-1-7,55,42,28,34,29,25,93,74,38,30.40,30.32,30.29,10,10,7,9,3,,0.00,0,,40
2013-1-8,60,45,30,43,36,27,87,71,51,30.37,30.30,30.26,10,10,10,12,4,,0.00,3,,69
2013-1-9,57,52,48,52,48,43,88,82,76,30.41,30.35,30.30,10,10,7,10,7,,0.05,7,,65
2013-1-10,66,60,55,59,55,50,94,86,73,30.38,30.28,30.10,10,8,3,20,9,28,0.06,8,,90
2013-1-11,66,63,60,63,60,57,100,88,73,30.17,30.11,30.09,10,6,0,13,5,20,0.20,8,,198
2013-1-12,71,66,60,63,60,55,100,79,60,30.13,30.07,30.00,10,9,2,10,3,16,0.01,7,,179
2013-1-13,71,61,50,63,59,46,94,81,69,30.09,30.00,29.95,10,10,4,10,6,18,1.16,7,Thunderstorm,183
2013-1-14,48,44,39,46,41,36,93,90,81,30.22,30.15,30.09,10,8,2,12,8,16,1.50,8,,359
2013-1-15,46,44,42,45,43,39,93,92,87,30.13,30.05,29.95,10,5,1,12,6,,0.88,8,,38
2013-1-16,48,45,42,46,41,39,100,88,81,30.07,30.01,29.93,10,9,2,10,4,,0.20,8,,332
2013-1-17,46,40,33,43,35,28,93,85,70,30.36,30.03,29.84,10,7,2,17,7,25,0.71,6,,342
2013-1-18,53,40,28,34,29,27,93,74,38,30.57,30.46,30.37,10,10,3,10,3,,0.00,0,,10
2013-1-19,55,40,24,36,28,21,93,73,36,30.45,30.34,30.23,10,10,10,8,1,,0.00,0,,200
2013-1-20,60,43,26,37,32,25,93,75,39,30.25,30.19,30.13,10,10,10,6,1,,0.00,0,,324
2013-1-21,51,40,28,36,25,18,93,65,32,30.24,30.18,30.12,10,10,10,14,3,21,0.00,0,,322
2013-1-22,44,34,24,23,17,14,80,50,31,30.39,30.32,30.24,10,10,10,12,5,,0.00,1,,340
2013-1-23,55,42,30,37,28,19,86,60,38,30.40,30.30,30.21,10,10,10,10,2,16,0.00,6,,229
2013-1-24,53,45,37,39,28,14,81,52,26,30.35,30.29,30.19,10,10,10,13,4,,0.00,4,,7
2013-1-25,51,43,35,37,29,14,93,62,38,30.31,30.20,30.10,10,9,2,12,7,,0.02,8,,87
2013-1-26,57,47,37,39,33,27,93,65,33,30.32,30.27,30.18,10,9,3,9,3,,0.02,3,,6
2013-1-27,53,46,39,39,35,30,81,64,54,30.40,30.34,30.30,10,10,10,14,6,,0.00,7,,66
2013-1-28,62,52,41,52,42,32,93,72,62,30.37,30.30,30.23,10,9,2,10,4,,0.00,5,,106
2013-1-29,69,58,46,61,52,45,93,81,68,30.23,30.06,29.84,10,7,0,15,3,24,0.00,7,,111
2013-1-30,69,53,37,64,50,23,94,82,56,29.97,29.72,29.62,10,10,2,25,10,37,1.74,7,Thunderstorm,228
2013-1-31,48,39,30,27,25,21,80,57,37,30.19,30.12,29.98,10,10,10,17,10,26,0.00,1,,264